| time (UTC) | temp F | wind direction | speed knots | gust knots | rain 1hr in | rain 24hr in | rain mn in | humidity % | barometer mb |
| 20260505124308 | 46 | 54 | 0.0 | 0.0 | 0.00 | 0.00 | 0.00 | 96 | 1014.6 |
| 20260505122808 | 46 | 52 | 0.0 | 0.0 | 0.00 | 0.00 | 0.00 | 96 | 1014.6 |
| 20260505121305 | 46 | 61 | 0.0 | 0.0 | 0.00 | 0.00 | 0.00 | 95 | 1014.5 |
| 20260505115802 | 47 | 48 | 0.0 | 0.0 | 0.00 | 0.00 | 0.00 | 94 | 1014.6 |
| 20260505114259 | 48 | 90 | 0.9 | 0.9 | 0.00 | 0.00 | 0.00 | 94 | 1014.5 |
| 20260505112759 | 48 | 73 | 0.0 | 0.9 | 0.00 | 0.00 | 0.00 | 93 | 1014.4 |
| 20260505111259 | 48 | 43 | 0.0 | 0.9 | 0.00 | 0.00 | 0.00 | 93 | 1014.0 |
| 20260505101246 | 50 | 84 | 0.0 | 0.9 | 0.00 | 0.00 | 0.00 | 90 | 1013.1 |
| 20260505095747 | 50 | 35 | 0.9 | 0.9 | 0.00 | 0.00 | 0.00 | 89 | 1012.9 |
| 20260505094243 | 51 | 210 | 1.7 | 1.7 | 0.00 | 0.00 | 0.00 | 89 | 1012.8 |
| 20260505092739 | 51 | 49 | 0.0 | 0.0 | 0.00 | 0.00 | 0.00 | 87 | 1012.9 |
| 20260505091238 | 52 | 87 | 0.9 | 1.7 | 0.00 | 0.00 | 0.00 | 85 | 1012.8 |
| 20260505085737 | 52 | 21 | 0.9 | 0.9 | 0.00 | 0.00 | 0.00 | 86 | 1012.7 |
| 20260505084237 | 53 | 55 | 0.0 | 0.0 | 0.00 | 0.00 | 0.00 | 84 | 1012.7 |
| 20260505082732 | 54 | 223 | 1.7 | 1.7 | 0.00 | 0.00 | 0.00 | 83 | 1012.5 |
| 20260505081229 | 54 | 3 | 0.9 | 0.9 | 0.00 | 0.00 | 0.00 | 81 | 1012.4 |
| 20260505075728 | 54 | 27 | 0.9 | 0.9 | 0.00 | 0.00 | 0.00 | 81 | 1012.2 |
| 20260505074226 | 56 | 71 | 0.0 | 0.9 | 0.00 | 0.00 | 0.00 | 76 | 1012.2 |
| 20260505072723 | 56 | 62 | 0.0 | 0.0 | 0.00 | 0.00 | 0.00 | 78 | 1012.1 |
| 20260505071218 | 56 | 55 | 0.0 | 0.0 | 0.00 | 0.00 | 0.00 | 77 | 1011.9 |
| 20260505065713 | 57 | 68 | 0.0 | 0.9 | 0.00 | 0.00 | 0.00 | 74 | 1011.8 |
| 20260505064211 | 58 | 78 | 0.0 | 0.9 | 0.00 | 0.00 | 0.00 | 74 | 1011.3 |
| 20260505062706 | 59 | 67 | 0.9 | 0.9 | 0.00 | 0.00 | 0.00 | 73 | 1011.3 |
| 20260505061205 | 59 | 75 | 0.9 | 0.9 | 0.00 | 0.00 | 0.00 | 71 | 1011.1 |
| 20260505055700 | 59 | 72 | 0.9 | 0.9 | 0.00 | 0.00 | 0.00 | 71 | 1010.9 |
| 20260505054158 | 60 | 79 | 0.9 | 0.9 | 0.00 | 0.00 | 0.00 | 69 | 1010.7 |
| 20260505052655 | 61 | 62 | 0.0 | 0.9 | 0.00 | 0.00 | 0.00 | 66 | 1010.8 |
| 20260505051153 | 62 | 86 | 0.9 | 0.9 | 0.00 | 0.00 | 0.00 | 65 | 1010.7 |
| 20260505041145 | 67 | 20 | 0.9 | 0.9 | 0.00 | 0.00 | 0.00 | 56 | 1010.3 |
| 20260505035641 | 69 | 110 | 1.7 | 1.7 | 0.00 | 0.00 | 0.00 | 48 | 1010.5 |
| 20260505034138 | 69 | 76 | 0.9 | 0.9 | 0.00 | 0.00 | 0.00 | 47 | 1009.8 |
| 20260505032636 | 69 | 66 | 0.0 | 0.9 | 0.00 | 0.00 | 0.00 | 46 | 1009.4 |
| 20260505031131 | 71 | 303 | 1.7 | 2.6 | 0.00 | 0.00 | 0.00 | 43 | 1009.0 |
| 20260505025626 | 71 | 217 | 1.7 | 8.7 | 0.00 | 0.00 | 0.00 | 39 | 1009.0 |
| 20260505024125 | 72 | 34 | 0.9 | 5.2 | 0.00 | 0.00 | 0.00 | 41 | 1008.8 |
| 20260505022622 | 73 | 137 | 6.1 | 11.3 | 0.00 | 0.00 | 0.00 | 40 | 1008.6 |
| 20260505021118 | 74 | 103 | 2.6 | 4.3 | 0.00 | 0.00 | 0.00 | 40 | 1008.2 |
| 20260505015613 | 77 | 87 | 4.3 | 5.2 | 0.00 | 0.00 | 0.00 | 37 | 1008.2 |
| 20260505014109 | 79 | 97 | 3.5 | 7.8 | 0.00 | 0.00 | 0.00 | 34 | 1007.9 |
| 20260505012608 | 80 | 56 | 2.6 | 4.3 | 0.00 | 0.00 | 0.00 | 33 | 1007.7 |
| 20260505011104 | 81 | 104 | 6.1 | 8.7 | 0.00 | 0.00 | 0.00 | 33 | 1007.8 |
| 20260505005603 | 81 | 108 | 1.7 | 4.3 | 0.00 | 0.00 | 0.00 | 32 | 1007.6 |
| 20260505004100 | 81 | 77 | 0.9 | 2.6 | 0.00 | 0.00 | 0.00 | 32 | 1007.5 |
| 20260505002555 | 81 | 35 | 1.7 | 6.1 | 0.00 | 0.00 | 0.00 | 30 | 1007.8 |
| 20260505001054 | 83 | 72 | 0.9 | 2.6 | 0.00 | 0.00 | 0.00 | 28 | 1007.7 |
| 20260504235552 | 81 | 71 | 0.9 | 1.7 | 0.00 | 0.00 | 0.00 | 30 | 1007.8 |
| 20260504234048 | 81 | 96 | 0.9 | 6.1 | 0.00 | 0.00 | 0.00 | 32 | 1008.0 |
| 20260504232543 | 81 | 116 | 1.7 | 9.6 | 0.00 | 0.00 | 0.00 | 34 | 1007.9 |
| 20260504231039 | 81 | 101 | 6.1 | 8.7 | 0.00 | 0.00 | 0.00 | 31 | 1008.3 |
| 20260504225537 | 80 | 98 | 1.7 | 4.3 | 0.00 | 0.00 | 0.00 | 32 | 1008.3 |
| 20260504224034 | 81 | 128 | 3.5 | 5.2 | 0.00 | 0.00 | 0.00 | 32 | 1008.2 |
| 20260504222529 | 81 | 50 | 0.0 | 2.6 | 0.00 | 0.00 | 0.00 | 29 | 1008.3 |
| 20260504221026 | 80 | 115 | 7.0 | 7.8 | 0.00 | 0.00 | 0.00 | 29 | 1008.4 |
| 20260504215522 | 81 | 92 | 2.6 | 2.6 | 0.00 | 0.00 | 0.00 | 31 | 1008.9 |
| 20260504214017 | 80 | 140 | 1.7 | 5.2 | 0.00 | 0.00 | 0.00 | 35 | 1008.9 |
| 20260504212513 | 80 | 88 | 3.5 | 7.0 | 0.00 | 0.00 | 0.00 | 33 | 1009.1 |
| 20260504211011 | 80 | 78 | 2.6 | 7.8 | 0.00 | 0.00 | 0.00 | 34 | 1009.2 |
| 20260504205508 | 80 | 24 | 0.9 | 1.7 | 0.00 | 0.00 | 0.00 | 36 | 1009.4 |
| 20260504204008 | 78 | 92 | 2.6 | 4.3 | 0.00 | 0.00 | 0.00 | 38 | 1009.5 |
| 20260504202504 | 79 | 125 | 1.7 | 2.6 | 0.00 | 0.00 | 0.00 | 33 | 1009.6 |
| 20260504201001 | 78 | 74 | 4.3 | 7.0 | 0.00 | 0.00 | 0.00 | 33 | 1009.8 |
| 20260504195456 | 77 | 100 | 2.6 | 4.3 | 0.00 | 0.00 | 0.00 | 33 | 1009.8 |
| 20260504193956 | 75 | 114 | 1.7 | 5.2 | 0.00 | 0.00 | 0.00 | 36 | 1009.9 |
| 20260504192455 | 75 | 63 | 0.9 | 1.7 | 0.00 | 0.00 | 0.00 | 35 | 1010.2 |
| 20260504190953 | 74 | 88 | 1.7 | 1.7 | 0.00 | 0.00 | 0.00 | 40 | 1010.5 |
| 20260504185449 | 72 | 51 | 0.0 | 4.3 | 0.00 | 0.00 | 0.00 | 39 | 1010.5 |
| 20260504183948 | 71 | 70 | 0.9 | 4.3 | 0.00 | 0.00 | 0.00 | 41 | 1010.8 |
| 20260504182446 | 70 | 91 | 2.6 | 4.3 | 0.00 | 0.00 | 0.00 | 45 | 1011.2 |
| 20260504180944 | 70 | 51 | 0.9 | 0.9 | 0.00 | 0.00 | 0.00 | 45 | 1011.3 |
| 20260504175443 | 67 | 78 | 1.7 | 1.7 | 0.00 | 0.00 | 0.00 | 46 | 1011.4 |
| 20260504173941 | 66 | 59 | 0.0 | 1.7 | 0.00 | 0.00 | 0.00 | 50 | 1011.6 |
| 20260504172437 | 65 | 74 | 2.6 | 2.6 | 0.00 | 0.00 | 0.00 | 54 | 1011.9 |
| 20260504170933 | 64 | 17 | 0.0 | 0.9 | 0.00 | 0.00 | 0.00 | 51 | 1012.1 |
| 20260504150906 | 52 | 45 | 0.0 | 0.0 | 0.00 | 0.00 | 0.00 | 71 | 1013.5 |